Time,TemperatureF,DewpointF,PressureIn,WindDirection,WindDirectionDegrees,WindSpeedMPH,WindSpeedGustMPH,Humidity,HourlyPrecipIn,Conditions,Clouds,dailyrainin,SoftwareType,DateUTC
2013-02-22 00:14:00,31.2,27.0,30.03,SW,236,2.0,4.0,83,0.00,,,0.00,weatherlink.com 1.10,2013-02-22 08:14:00,
2013-02-22 00:29:00,31.4,27.0,30.03,North,353,4.0,5.0,83,0.00,,,0.00,weatherlink.com 1.10,2013-02-22 08:29:00,
2013-02-22 00:44:00,31.4,27.0,30.03,NNE,27,2.0,6.0,84,0.00,,,0.00,weatherlink.com 1.10,2013-02-22 08:44:00,
2013-02-22 00:59:00,31.3,27.0,30.04,SE,138,1.0,5.0,83,0.00,,,0.00,weatherlink.com 1.10,2013-02-22 08:59:00,
2013-02-22 01:14:00,31.4,27.0,30.04,South,190,2.0,5.0,83,0.00,,,0.00,weatherlink.com 1.10,2013-02-22 09:14:00,
2013-02-22 01:29:00,31.6,27.0,30.05,ESE,105,0.0,5.0,83,0.00,,,0.00,weatherlink.com 1.10,2013-02-22 09:29:00,
2013-02-22 01:44:00,31.4,27.0,30.05,NNW,340,3.0,6.0,83,0.00,,,0.00,weatherlink.com 1.10,2013-02-22 09:44:00,
2013-02-22 01:59:00,31.6,27.0,30.05,NE,55,2.0,5.0,83,0.00,,,0.00,weatherlink.com 1.10,2013-02-22 09:59:00,
2013-02-22 02:14:00,31.7,27.0,30.04,East,100,5.0,6.0,83,0.00,,,0.00,weatherlink.com 1.10,2013-02-22 10:14:00,
2013-02-22 02:29:00,31.5,27.0,30.02,NE,41,2.0,6.0,84,0.00,,,0.00,weatherlink.com 1.10,2013-02-22 10:29:00,
2013-02-22 02:44:00,31.5,27.0,30.03,East,82,1.0,10.0,83,0.00,,,0.00,weatherlink.com 1.10,2013-02-22 10:44:00,
2013-02-22 02:59:00,31.4,27.0,30.02,East,90,2.0,6.0,83,0.00,,,0.00,weatherlink.com 1.10,2013-02-22 10:59:00,
2013-02-22 03:14:00,31.8,27.0,30.02,East,93,2.0,7.0,82,0.00,,,0.00,weatherlink.com 1.10,2013-02-22 11:14:00,
2013-02-22 03:29:00,32.1,27.0,30.03,East,101,0.0,9.0,81,0.00,,,0.00,weatherlink.com 1.10,2013-02-22 11:29:00,
2013-02-22 03:44:00,32.3,27.0,30.03,West,269,3.0,7.0,80,0.00,,,0.00,weatherlink.com 1.10,2013-02-22 11:44:00,
2013-02-22 03:59:00,32.5,27.0,30.02,ENE,77,2.0,8.0,79,0.00,,,0.00,weatherlink.com 1.10,2013-02-22 11:59:00,
2013-02-22 04:14:00,32.4,27.0,30.02,East,91,2.0,6.0,79,0.00,,,0.00,weatherlink.com 1.10,2013-02-22 12:14:00,
2013-02-22 04:29:00,32.2,27.0,30.02,ENE,75,1.0,5.0,80,0.00,,,0.00,weatherlink.com 1.10,2013-02-22 12:29:00,
2013-02-22 04:44:00,32.0,27.0,30.02,East,83,2.0,8.0,81,0.00,,,0.00,weatherlink.com 1.10,2013-02-22 12:44:00,
2013-02-22 04:59:00,32.2,27.0,30.02,NNW,343,3.0,5.0,81,0.00,,,0.00,weatherlink.com 1.10,2013-02-22 12:59:00,
2013-02-22 05:14:00,32.4,28.0,30.03,NNE,16,2.0,6.0,82,0.00,,,0.00,weatherlink.com 1.10,2013-02-22 13:14:00,
2013-02-22 05:30:00,32.5,28.0,30.03,NNE,29,3.0,5.0,82,0.00,,,0.00,weatherlink.com 1.10,2013-02-22 13:30:00,
2013-02-22 05:45:00,32.5,28.0,30.02,NE,35,3.0,5.0,82,0.00,,,0.00,weatherlink.com 1.10,2013-02-22 13:45:00,
2013-02-22 05:59:00,32.6,27.0,30.02,North,9,5.0,6.0,81,0.00,,,0.00,weatherlink.com 1.10,2013-02-22 13:59:00,
2013-02-22 06:14:00,32.5,27.0,30.01,North,357,6.0,8.0,81,0.00,,,0.00,weatherlink.com 1.10,2013-02-22 14:14:00,
2013-02-22 06:29:00,32.5,27.0,30.01,NE,35,3.0,5.0,81,0.00,,,0.00,weatherlink.com 1.10,2013-02-22 14:29:00,
2013-02-22 06:45:00,32.7,28.0,30.01,ENE,72,2.0,8.0,81,0.00,,,0.00,weatherlink.com 1.10,2013-02-22 14:45:00,
2013-02-22 06:59:00,32.4,27.0,30.01,North,354,5.0,8.0,79,0.00,,,0.00,weatherlink.com 1.10,2013-02-22 14:59:00,
2013-02-22 07:14:00,32.1,27.0,30.02,WSW,239,4.0,7.0,80,0.00,,,0.00,weatherlink.com 1.10,2013-02-22 15:14:00,
2013-02-22 07:29:00,32.0,27.0,30.02,NNE,13,4.0,6.0,81,0.00,,,0.00,weatherlink.com 1.10,2013-02-22 15:29:00,
2013-02-22 07:44:00,32.0,27.0,30.02,NNE,25,2.0,7.0,80,0.00,,,0.00,weatherlink.com 1.10,2013-02-22 15:44:00,
2013-02-22 08:00:00,32.1,27.0,30.01,NNE,29,3.0,5.0,81,0.00,,,0.00,weatherlink.com 1.10,2013-02-22 16:00:00,
2013-02-22 08:14:00,32.1,27.0,30.01,ENE,64,2.0,5.0,80,0.00,,,0.00,weatherlink.com 1.10,2013-02-22 16:14:00,
2013-02-22 08:29:00,31.9,27.0,30.00,South,174,1.0,7.0,81,0.00,,,0.00,weatherlink.com 1.10,2013-02-22 16:29:00,
2013-02-22 08:44:00,32.0,27.0,30.00,NNE,13,3.0,8.0,80,0.00,,,0.00,weatherlink.com 1.10,2013-02-22 16:44:00,
2013-02-22 09:00:00,32.1,27.0,29.98,NNE,18,5.0,9.0,80,0.00,,,0.00,weatherlink.com 1.10,2013-02-22 17:00:00,
2013-02-22 09:15:00,32.3,27.0,29.98,NNW,348,3.0,6.0,80,0.00,,,0.00,weatherlink.com 1.10,2013-02-22 17:15:00,
2013-02-22 09:30:00,32.7,27.0,29.99,NE,39,1.0,8.0,80,0.00,,,0.00,weatherlink.com 1.10,2013-02-22 17:30:00,
2013-02-22 09:45:00,32.9,27.0,29.98,SW,215,4.0,9.0,78,0.00,,,0.00,weatherlink.com 1.10,2013-02-22 17:45:00,
2013-02-22 10:00:00,33.0,27.0,29.96,South,188,5.0,10.0,77,0.00,,,0.00,weatherlink.com 1.10,2013-02-22 18:00:00,
2013-02-22 10:15:00,33.3,27.0,29.96,NNE,29,6.0,13.0,77,0.00,,,0.00,weatherlink.com 1.10,2013-02-22 18:15:00,
2013-02-22 10:30:00,33.5,27.0,29.95,NNE,20,6.0,10.0,77,0.00,,,0.00,weatherlink.com 1.10,2013-02-22 18:30:00,
2013-02-22 10:45:00,33.7,27.0,29.95,SW,219,7.0,8.0,76,0.00,,,0.00,weatherlink.com 1.10,2013-02-22 18:45:00,
2013-02-22 11:00:00,34.1,27.0,29.95,North,358,4.0,8.0,74,0.00,,,0.00,weatherlink.com 1.10,2013-02-22 19:00:00,
2013-02-22 11:15:00,34.6,27.0,29.95,South,190,3.0,8.0,74,0.00,,,0.00,weatherlink.com 1.10,2013-02-22 19:15:00,
2013-02-22 11:30:00,35.3,28.0,29.94,North,1,4.0,7.0,74,0.00,,,0.00,weatherlink.com 1.10,2013-02-22 19:30:00,
2013-02-22 11:45:00,36.3,28.0,29.92,NNW,332,7.0,9.0,73,0.00,,,0.00,weatherlink.com 1.10,2013-02-22 19:45:00,
2013-02-22 12:00:00,38.3,30.0,29.91,NNE,30,3.0,12.0,71,0.00,,,0.00,weatherlink.com 1.10,2013-02-22 20:00:00,
2013-02-22 12:15:00,40.2,30.0,29.90,NE,41,5.0,9.0,68,0.00,,,0.00,weatherlink.com 1.10,2013-02-22 20:15:00,
2013-02-22 12:31:00,42.0,31.0,29.89,NNW,347,5.0,10.0,66,0.00,,,0.00,weatherlink.com 1.10,2013-02-22 20:31:00,
2013-02-22 12:45:00,43.3,32.0,29.88,ENE,77,2.0,10.0,64,0.00,,,0.00,weatherlink.com 1.10,2013-02-22 20:45:00,
2013-02-22 13:01:00,43.7,31.0,29.86,NNE,25,4.0,12.0,61,0.00,,,0.00,weatherlink.com 1.10,2013-02-22 21:01:00,
2013-02-22 13:15:00,42.2,31.0,29.88,NNE,13,5.0,11.0,64,0.00,,,0.00,weatherlink.com 1.10,2013-02-22 21:15:00,
2013-02-22 13:30:00,39.9,32.0,29.88,ENE,65,7.0,14.0,72,0.00,,,0.00,weatherlink.com 1.10,2013-02-22 21:30:00,
2013-02-22 13:46:00,36.9,33.0,29.88,NNE,16,3.0,11.0,85,0.00,,,0.00,weatherlink.com 1.10,2013-02-22 21:46:00,
2013-02-22 14:00:00,35.4,33.0,29.87,ENE,65,2.0,11.0,90,0.00,,,0.00,weatherlink.com 1.10,2013-02-22 22:00:00,
2013-02-22 14:15:00,34.9,33.0,29.85,NE,56,3.0,8.0,92,0.00,,,0.00,weatherlink.com 1.10,2013-02-22 22:15:00,
2013-02-22 14:30:00,34.5,33.0,29.86,North,354,4.0,11.0,93,0.00,,,0.00,weatherlink.com 1.10,2013-02-22 22:30:00,
2013-02-22 14:45:00,34.3,33.0,29.85,SW,221,4.0,10.0,94,0.00,,,0.00,weatherlink.com 1.10,2013-02-22 22:45:00,
2013-02-22 15:01:00,34.0,33.0,29.84,NNW,347,4.0,7.0,95,0.00,,,0.00,weatherlink.com 1.10,2013-02-22 23:01:00,
2013-02-22 15:16:00,33.8,33.0,29.85,ESE,113,1.0,7.0,95,0.00,,,0.00,weatherlink.com 1.10,2013-02-22 23:16:00,
2013-02-22 15:31:00,33.6,32.0,29.86,NNE,32,2.0,6.0,95,0.00,,,0.00,weatherlink.com 1.10,2013-02-22 23:31:00,
2013-02-22 15:46:00,33.5,33.0,29.86,East,79,2.0,5.0,96,0.00,,,0.00,weatherlink.com 1.10,2013-02-22 23:46:00,
2013-02-22 16:01:00,33.5,33.0,29.82,NE,39,1.0,8.0,96,0.00,,,0.00,weatherlink.com 1.10,2013-02-23 00:01:00,
2013-02-22 16:16:00,33.8,33.0,29.80,North,8,6.0,10.0,96,0.00,,,0.00,weatherlink.com 1.10,2013-02-23 00:16:00,
2013-02-22 16:31:00,33.8,33.0,29.81,East,82,2.0,9.0,96,0.00,,,0.00,weatherlink.com 1.10,2013-02-23 00:31:00,
2013-02-22 16:46:00,33.9,33.0,29.81,North,349,3.0,6.0,96,0.00,,,0.00,weatherlink.com 1.10,2013-02-23 00:46:00,
2013-02-22 17:01:00,33.9,33.0,29.81,SSE,167,1.0,7.0,96,0.00,,,0.00,weatherlink.com 1.10,2013-02-23 01:01:00,
2013-02-22 17:16:00,33.9,33.0,29.80,NNE,25,3.0,6.0,96,0.00,,,0.00,weatherlink.com 1.10,2013-02-23 01:16:00,
2013-02-22 17:31:00,33.8,33.0,29.80,NNE,16,6.0,7.0,96,0.00,,,0.00,weatherlink.com 1.10,2013-02-23 01:31:00,
2013-02-22 17:46:00,33.9,33.0,29.80,NNE,23,3.0,9.0,96,0.00,,,0.00,weatherlink.com 1.10,2013-02-23 01:46:00,
2013-02-22 18:01:00,34.0,33.0,29.80,ENE,71,2.0,5.0,96,0.00,,,0.00,weatherlink.com 1.10,2013-02-23 02:01:00,
2013-02-22 18:16:00,34.0,33.0,29.79,NNE,32,2.0,4.0,96,0.00,,,0.00,weatherlink.com 1.10,2013-02-23 02:16:00,
2013-02-22 18:31:00,33.9,33.0,29.79,North,11,4.0,8.0,96,0.00,,,0.00,weatherlink.com 1.10,2013-02-23 02:31:00,
2013-02-22 18:46:00,33.9,33.0,29.78,NE,43,2.0,6.0,96,0.00,,,0.00,weatherlink.com 1.10,2013-02-23 02:46:00,
2013-02-22 19:01:00,33.9,33.0,29.78,ESE,115,1.0,5.0,96,0.00,,,0.00,weatherlink.com 1.10,2013-02-23 03:01:00,
2013-02-22 19:16:00,33.8,33.0,29.77,NE,49,1.0,7.0,96,0.00,,,0.00,weatherlink.com 1.10,2013-02-23 03:16:00,
2013-02-22 19:31:00,33.8,33.0,29.77,NE,56,2.0,7.0,96,0.00,,,0.00,weatherlink.com 1.10,2013-02-23 03:31:00,
2013-02-22 19:46:00,33.7,33.0,29.77,SE,128,0.0,4.0,96,0.00,,,0.00,weatherlink.com 1.10,2013-02-23 03:46:00,
2013-02-22 20:01:00,33.7,33.0,29.78,SSE,160,0.0,3.0,96,0.00,,,0.00,weatherlink.com 1.10,2013-02-23 04:01:00,
2013-02-22 20:16:00,33.7,33.0,29.80,SSE,160,0.0,6.0,95,0.00,,,0.00,weatherlink.com 1.10,2013-02-23 04:16:00,
2013-02-22 20:31:00,31.6,29.0,29.82,ENE,78,2.0,8.0,91,0.00,,,0.00,weatherlink.com 1.10,2013-02-23 04:31:00,
2013-02-22 20:46:00,30.7,28.0,29.81,South,173,1.0,4.0,88,0.00,,,0.00,weatherlink.com 1.10,2013-02-23 04:46:00,
2013-02-22 21:01:00,30.3,27.0,29.81,SSE,162,0.0,4.0,87,0.00,,,0.00,weatherlink.com 1.10,2013-02-23 05:01:00,
2013-02-22 21:16:00,30.0,26.0,29.82,WSW,249,9.0,9.0,86,0.00,,,0.00,weatherlink.com 1.10,2013-02-23 05:16:00,
2013-02-22 21:31:00,29.7,26.0,29.82,WSW,253,5.0,5.0,86,0.00,,,0.00,weatherlink.com 1.10,2013-02-23 05:31:00,
2013-02-22 21:46:00,29.3,27.0,29.83,South,179,0.0,4.0,89,0.00,,,0.00,weatherlink.com 1.10,2013-02-23 05:46:00,
2013-02-22 22:01:00,29.1,27.0,29.85,SE,142,0.0,4.0,90,0.00,,,0.00,weatherlink.com 1.10,2013-02-23 06:01:00,
2013-02-22 22:16:00,28.8,27.0,29.86,SE,135,0.0,4.0,91,0.00,,,0.00,weatherlink.com 1.10,2013-02-23 06:16:00,
2013-02-22 22:31:00,28.4,26.0,29.86,NE,56,0.0,6.0,89,0.00,,,0.00,weatherlink.com 1.10,2013-02-23 06:31:00,
2013-02-22 22:46:00,27.8,25.0,29.86,WSW,245,4.0,5.0,89,0.00,,,0.00,weatherlink.com 1.10,2013-02-23 06:46:00,
2013-02-22 23:01:00,27.3,25.0,29.87,ESE,122,1.0,4.0,89,0.00,,,0.00,weatherlink.com 1.10,2013-02-23 07:01:00,
2013-02-22 23:16:00,27.2,25.0,29.87,SSE,153,0.0,5.0,91,0.00,,,0.00,weatherlink.com 1.10,2013-02-23 07:16:00,
2013-02-22 23:31:00,27.3,25.0,29.89,South,181,0.0,6.0,91,0.00,,,0.00,weatherlink.com 1.10,2013-02-23 07:31:00,
2013-02-22 23:46:00,27.3,25.0,29.90,SE,132,0.0,1.0,91,0.00,,,0.00,weatherlink.com 1.10,2013-02-23 07:46:00,